Left ArrowRight Arrow

46.92218, -95.05863

Hourly Observations for June 17, 2024

Temp ( °F °C ) Dew Point ( °F °C ) Humidity (%) Winds ( mph kmh ) Pressure ( in mb ) Visibility ( mi km ) Precip ( " mm )
12:53 am 00:53 Clear 52 11.1 43 6.1 71 71 Calm 29.79 1009 10 16 0.00 0.00
1:53 am 01:53 Clear 53 11.7 44 6.7 71 71 Calm 29.79 1009 10 16 0.00 0.00
2:53 am 02:53 Clear 49 9.4 44 6.7 83 83 S 6 9 29.81 1009 10 16 0.00 0.00
3:53 am 03:53 Clear 50 10 45 7.2 83 83 Calm 29.81 1010 10 16 0.00 0.00
4:53 am 04:53 Clear 52 11.1 47 8.3 83 83 WSW 3 6 29.81 1010 10 16 0.00 0.00
5:53 am 05:53 Sunny 54 12.2 47 8.3 77 77 VRB 3 6 29.83 1010 10 16 0.00 0.00
6:53 am 06:53 Sunny 55 12.8 47 8.3 74 74 Calm 29.86 1011 10 16 0.00 0.00
7:53 am 07:53 Sunny 56 13.3 49 9.4 77 77 Calm 29.88 1012 10 16 0.00 0.00
8:53 am 08:53 Sunny 62 16.7 50 10 65 65 N 3 6 29.85 1011 10 16 0.00 0.00
9:53 am 09:53 Sunny 68 20 43 6.1 40 40 ESE 3 6 29.85 1011 10 16 0.00 0.00
10:53 am 10:53 Sunny 69 20.6 44 6.7 40 40 ESE 5 7 29.84 1010 10 16 0.00 0.00
11:53 am 11:53 Sunny 71 21.7 42 5.6 35 35 Calm 29.81 1010 10 16 0.00 0.00
12:53 pm 12:53 Sunny 72 22.2 46 7.8 40 40 E 8 13 29.83 1010 10 16 0.00 0.00
1:53 pm 13:53 undefined 71 21.7 47 8.3 42 42 SE 9 15 29.83 1010 N/A 0.00 0.00
2:53 pm 14:53 Mostly Sunny 72 22.2 46 7.8 40 40 SE 12 19 29.80 1009 10 16 0.00 0.00
3:53 pm 15:53 Mostly Cloudy 72 22.2 48 8.9 43 43 ESE 6 9 29.79 1009 10 16 0.00 0.00
4:53 pm 16:53 Cloudy 72 22.2 49 9.4 44 44 SE 13 20 29.79 1009 10 16 0.00 0.00
5:53 pm 17:53 Cloudy 71 21.7 52 11.1 51 51 SE 12 19 29.77 1008 10 16 0.00 0.00
6:53 pm 18:53 Sunny 70 21.1 52 11.1 53 53 ESE 9 15 29.76 1008 10 16 0.00 0.00
7:53 pm 19:53 Sunny 69 20.6 52 11.1 54 54 SE 13 20 29.75 1007 10 16 0.00 0.00
8:53 pm 20:53 Sunny 67 19.4 53 11.7 61 61 SE 9 15 29.72 1007 10 16 0.00 0.00
9:53 pm 21:53 Mostly Clear 65 18.3 56 13.3 73 73 SE 9 15 29.72 1007 10 16 0.00 0.00
10:53 pm 22:53 Cloudy 64 17.8 57 13.9 78 78 ESE 13 20 29.70 1006 10 16 0.00 0.00
11:53 pm 23:53 Cloudy with Light Rain 63 17.2 58 14.4 84 84 ESE 8 13 29.65 1004 10 16 0.01 0.13

Powered by Vaisala Xweather